Weather History for KJKJ - October, 2013

Change the Weather History Date:

Friday, October 11, 2013

  Actual Average (KFAR) Record (KFAR)
Temperature  
Mean Temperature 61 °F 48 °F  
Max Temperature 69 °F 59 °F 85 °F (1943)
Min Temperature 53 °F 37 °F 20 °F (1917)
Degree Days  
Heating Degree Days 4 17  
Month to date heating degree days 166  
Since 1 July heating degree days 436  
Cooling Degree Days 0 0  
Month to date cooling degree days 0  
Year to date cooling degree days 548  
Growing Degree Days 11 (Base 50)    
Moisture  
Dew Point 56 °F    
Average Humidity 79    
Maximum Humidity 100    
Minimum Humidity 49    
Precipitation  
Precipitation 0.31 in 0.08 in 1.05 in (1924)
Month to date precipitation 0.88  
Year to date precipitation 19.51  
Snow  
Snow 0.00 in 0.00 in 1.60 in (2006)
Month to date snowfall 0.1  
Since 1 July snowfall 0.1  
Since 1 September snowfall 0.1  
Snow Depth -    
Sea Level Pressure  
Sea Level Pressure 29.54 in    
Wind  
Wind Speed 17 mph (SSE)    
Max Wind Speed 25 mph    
Max Gust Speed 39 mph    
Visibility 10 miles    
Events Rain , Thunderstorm    
T = Trace of Precipitation, MM = Missing Value Source: NWS Daily Summary

Daily Weather History Graph

Daily Weather History Graph

Search for Another Location

Airport or City:

Trip Planner

Search our weather history database for the weather conditions in past years. The results will help you decide how hot, cold, wet, or windy it might be!

Date:

Astronomy

Oct. 11, 2013 Rise Set
Actual Time 7:39 AM CDT 6:46 PM CDT
Civil Twilight 7:08 AM CDT 7:16 PM CDT
Nautical Twilight 6:33 AM CDT 7:51 PM CDT
Astronomical Twilight 5:58 AM CDT 8:27 PM CDT
Moon 2:33 PM CDT (10/11) No Moon Set
Length of Visible Light 12h 08m
Length of Day
11h 07m
Waxing Crescent, 47% of the Moon is Illuminated
Oct 11
Waxing Crescent
Oct 11
First Quarter
Oct 18
Full
Oct 26
Last Quarter
Nov 3
New

Hourly Weather History & Observations

Time (CDT) Temp. Dew Point Humidity Pressure Visibility Wind Dir Wind Speed Gust Speed Precip Events Conditions
12:15 AM 69.8 °F 51.8 °F 53% 29.71 in 10.0 mi SSE 15.0 mph 23.0 mph N/A   Clear
12:34 AM 69.8 °F 50.0 °F 49% 29.71 in 10.0 mi SSE 17.3 mph 24.2 mph N/A   Clear
12:55 AM 69.8 °F 51.8 °F 53% 29.71 in 10.0 mi SSE 16.1 mph 19.6 mph N/A   Clear
1:15 AM 69.8 °F 51.8 °F 53% 29.71 in 10.0 mi SSE 15.0 mph 20.7 mph N/A   Clear
1:35 AM 69.8 °F 51.8 °F 53% 29.71 in 10.0 mi SSE 17.3 mph 24.2 mph N/A   Clear
1:55 AM 69.8 °F 51.8 °F 53% 29.71 in 10.0 mi SSE 19.6 mph 23.0 mph N/A   Scattered Clouds
2:14 AM 69.8 °F 51.8 °F 53% 29.71 in 10.0 mi SSE 17.3 mph 24.2 mph N/A   Scattered Clouds
2:35 AM 69.8 °F 51.8 °F 53% 29.71 in 10.0 mi South 16.1 mph 24.2 mph N/A   Scattered Clouds
2:55 AM 69.8 °F 51.8 °F 53% 29.71 in 10.0 mi SSE 16.1 mph 23.0 mph N/A   Clear
3:14 AM 66.2 °F 51.8 °F 60% 29.71 in 10.0 mi SSE 15.0 mph - N/A   Clear
3:35 AM 66.2 °F 51.8 °F 60% 29.72 in 10.0 mi SSE 16.1 mph 21.9 mph N/A   Scattered Clouds
3:55 AM 62.6 °F 55.4 °F 77% 29.71 in 10.0 mi SSE 15.0 mph 20.7 mph N/A Rain Light Rain
4:14 AM 62.6 °F 55.4 °F 77% 29.70 in 10.0 mi SSE 11.5 mph - N/A   Light Drizzle
4:35 AM 62.6 °F 55.4 °F 77% 29.69 in 10.0 mi SE 13.8 mph - N/A   Scattered Clouds
4:55 AM 64.4 °F 55.4 °F 73% 29.68 in 10.0 mi SE 15.0 mph - N/A   Clear
5:14 AM 64.4 °F 55.4 °F 73% 29.68 in 10.0 mi SSE 12.7 mph - N/A   Clear
5:35 AM 64.4 °F 53.6 °F 68% 29.66 in 10.0 mi SSE 12.7 mph 19.6 mph N/A   Clear
5:55 AM 64.4 °F 53.6 °F 68% 29.66 in 10.0 mi SSE 16.1 mph - N/A   Clear
6:14 AM 62.6 °F 53.6 °F 72% 29.66 in 10.0 mi SSE 16.1 mph 21.9 mph N/A   Clear
6:35 AM 62.6 °F 53.6 °F 72% 29.65 in 10.0 mi SE 18.4 mph 21.9 mph N/A   Clear
6:55 AM 62.6 °F 53.6 °F 72% 29.64 in 10.0 mi SE 16.1 mph 20.7 mph N/A   Clear
7:14 AM 62.6 °F 53.6 °F 72% 29.64 in 10.0 mi SE 15.0 mph 21.9 mph N/A   Clear
7:35 AM 60.8 °F 53.6 °F 77% 29.64 in 10.0 mi SE 15.0 mph 23.0 mph N/A   Clear
7:55 AM 60.8 °F 53.6 °F 77% 29.63 in 10.0 mi SE 13.8 mph - N/A   Clear
8:14 AM 60.8 °F 53.6 °F 77% 29.62 in 10.0 mi SE 12.7 mph 18.4 mph N/A   Clear
8:35 AM 60.8 °F 53.6 °F 77% 29.61 in 10.0 mi SE 12.7 mph 21.9 mph N/A   Clear
8:55 AM 60.8 °F 55.4 °F 82% 29.61 in 10.0 mi SE 15.0 mph 23.0 mph N/A   Clear
9:14 AM 60.8 °F 55.4 °F 82% 29.61 in 10.0 mi SE 17.3 mph 24.2 mph N/A   Clear
9:35 AM 62.6 °F 55.4 °F 77% 29.60 in 10.0 mi SE 20.7 mph 25.3 mph N/A   Clear
9:55 AM 62.6 °F 55.4 °F 77% 29.59 in 10.0 mi SE 18.4 mph 26.5 mph N/A   Clear
10:14 AM 64.4 °F 55.4 °F 73% 29.59 in 10.0 mi SE 23.0 mph 29.9 mph N/A   Clear
10:35 AM 64.4 °F 55.4 °F 73% 29.58 in 10.0 mi SSE 18.4 mph 28.8 mph N/A   Clear
10:55 AM 66.2 °F 55.4 °F 68% 29.58 in 10.0 mi SSE 19.6 mph 29.9 mph N/A   Clear
11:14 AM 66.2 °F 57.2 °F 73% 29.56 in 10.0 mi SSE 18.4 mph 29.9 mph N/A   Clear
11:35 AM 66.2 °F 57.2 °F 73% 29.53 in 10.0 mi SE 17.3 mph 28.8 mph N/A   Clear
11:55 AM 66.2 °F 57.2 °F 73% 29.55 in 10.0 mi SSE 21.9 mph 27.6 mph N/A Thunderstorm Scattered Clouds
12:15 PM 64.4 °F 57.2 °F 77% 29.56 in 7.0 mi SSE 13.8 mph 25.3 mph 0.01 in Rain , Thunderstorm Heavy Thunderstorms and Rain
12:35 PM 62.6 °F 60.8 °F 94% 29.55 in 10.0 mi SSE 11.5 mph 18.4 mph 0.06 in Rain , Thunderstorm Light Thunderstorms and Rain
12:54 PM 60.8 °F 60.8 °F 100% 29.53 in 4.0 mi SE 17.3 mph 27.6 mph 0.25 in Rain , Thunderstorm Heavy Thunderstorms and Rain
1:15 PM 62.6 °F 60.8 °F 94% 29.51 in 10.0 mi SSE 12.7 mph - 0.01 in   Mostly Cloudy
1:35 PM 62.6 °F 60.8 °F 94% 29.51 in 10.0 mi SE 13.8 mph 17.3 mph 0.01 in   Mostly Cloudy
1:54 PM 62.6 °F 60.8 °F 94% 29.49 in 10.0 mi SE 15.0 mph 23.0 mph 0.01 in   Overcast
2:15 PM 64.4 °F 62.6 °F 94% 29.46 in 10.0 mi SE 18.4 mph 27.6 mph N/A   Scattered Clouds
2:35 PM 66.2 °F 60.8 °F 83% 29.45 in 10.0 mi SE 23.0 mph 33.4 mph N/A   Mostly Cloudy
2:54 PM 64.4 °F 60.8 °F 88% 29.46 in 10.0 mi SSE 23.0 mph 31.1 mph N/A   Overcast
3:15 PM 64.4 °F 60.8 °F 88% 29.46 in 10.0 mi SSE 20.7 mph 34.5 mph N/A   Overcast
3:35 PM 66.2 °F 62.6 °F 88% 29.46 in 7.0 mi SSE 23.0 mph 29.9 mph N/A Rain Light Rain
3:54 PM 64.4 °F 62.6 °F 94% 29.45 in 10.0 mi SSE 17.3 mph 27.6 mph 0.01 in Rain Light Rain
4:15 PM 64.4 °F 62.6 °F 94% 29.43 in 10.0 mi SE 21.9 mph 32.2 mph N/A   Scattered Clouds
4:35 PM 64.4 °F 60.8 °F 88% 29.40 in 10.0 mi SE 20.7 mph 33.4 mph N/A   Mostly Cloudy
4:54 PM 64.4 °F 60.8 °F 88% 29.40 in 10.0 mi SE 19.6 mph 27.6 mph N/A   Overcast
5:15 PM 64.4 °F 60.8 °F 88% 29.39 in 10.0 mi SE 18.4 mph 29.9 mph N/A Rain Heavy Rain
5:35 PM 64.4 °F 60.8 °F 88% 29.38 in 10.0 mi SE 20.7 mph 28.8 mph N/A   Overcast
5:54 PM 64.4 °F 60.8 °F 88% 29.38 in 4.0 mi SSE 25.3 mph 33.4 mph 0.01 in Rain Heavy Rain
6:15 PM 62.6 °F 62.6 °F 100% 29.37 in 10.0 mi SSE 24.2 mph 34.5 mph 0.03 in Rain Light Rain
6:35 PM 62.6 °F 60.8 °F 94% 29.36 in 10.0 mi SSE 20.7 mph 28.8 mph 0.03 in   Scattered Clouds
6:54 PM 62.6 °F 60.8 °F 94% 29.36 in 10.0 mi SSE 15.0 mph 23.0 mph 0.03 in   Scattered Clouds
6:59 PM 62.6 °F 60.8 °F 94% 29.37 in 10.0 mi SSE 16.1 mph 21.9 mph N/A   Scattered Clouds
7:35 PM 64.4 °F 60.8 °F 88% 29.37 in 10.0 mi South 13.8 mph 39.1 mph N/A   Scattered Clouds
7:54 PM 62.6 °F 53.6 °F 72% 29.38 in 10.0 mi South 18.4 mph 24.2 mph N/A   Clear
8:15 PM 60.8 °F 53.6 °F 77% 29.38 in 10.0 mi South 12.7 mph 23.0 mph N/A   Clear
8:35 PM 60.8 °F 53.6 °F 77% 29.38 in 10.0 mi South 13.8 mph 21.9 mph N/A   Clear
8:54 PM 59.0 °F 53.6 °F 82% 29.39 in 10.0 mi SSW 21.9 mph 28.8 mph N/A   Clear
9:15 PM 57.2 °F 53.6 °F 88% 29.40 in 10.0 mi SSW 25.3 mph 29.9 mph N/A   Clear
9:35 PM 55.4 °F 51.8 °F 88% 29.42 in 10.0 mi SSW 21.9 mph 33.4 mph N/A   Clear
9:54 PM 53.6 °F 51.8 °F 94% 29.42 in 10.0 mi SSW 24.2 mph 34.5 mph N/A   Clear
10:15 PM 53.6 °F 51.8 °F 94% 29.44 in 10.0 mi SSW 23.0 mph 33.4 mph N/A   Scattered Clouds
10:35 PM 53.6 °F 51.8 °F 94% 29.44 in 10.0 mi SSW 21.9 mph 31.1 mph N/A   Scattered Clouds
10:54 PM 53.6 °F 50.0 °F 88% 29.45 in 10.0 mi SSW 20.7 mph 29.9 mph N/A   Scattered Clouds
11:15 PM 53.6 °F 50.0 °F 88% 29.46 in 10.0 mi SSW 19.6 mph 25.3 mph N/A   Overcast
11:35 PM 53.6 °F 51.8 °F 94% 29.46 in 10.0 mi SSW 20.7 mph 26.5 mph N/A   Overcast
11:54 PM 53.6 °F 51.8 °F 94% 29.46 in 10.0 mi SSW 15.0 mph 25.3 mph N/A   Overcast